TimeCDT,TemperatureF,Dew PointF,Humidity,Sea Level PressureIn,VisibilityMPH,Wind Direction,Wind SpeedMPH,Gust SpeedMPH,PrecipitationIn,Events,Conditions,WindDirDegrees,DateUTC
12:15 AM,64.4,43.7,47,29.93,10.0,SSW,10.4,18.4,N/A,,Clear,200,2013-10-09 05:15:00
12:35 AM,63.9,44.1,49,29.94,10.0,SSW,10.4,18.4,N/A,,Clear,200,2013-10-09 05:35:00
12:55 AM,63.5,44.2,49,29.94,10.0,SSW,11.5,18.4,N/A,,Clear,200,2013-10-09 05:55:00
1:15 AM,63.1,44.6,51,29.95,10.0,South,12.7,16.1,N/A,,Clear,190,2013-10-09 06:15:00
1:35 AM,63.0,44.6,51,29.95,10.0,SSW,12.7,-,N/A,,Clear,200,2013-10-09 06:35:00
1:55 AM,63.0,44.8,51,29.96,10.0,SSW,13.8,19.6,N/A,,Clear,200,2013-10-09 06:55:00
2:15 AM,62.6,44.8,52,29.96,10.0,SSW,10.4,-,N/A,,Clear,200,2013-10-09 07:15:00
2:35 AM,62.4,44.8,52,29.97,10.0,SSW,10.4,17.3,N/A,,Clear,200,2013-10-09 07:35:00
2:55 AM,61.9,45.0,54,29.97,10.0,South,10.4,17.3,N/A,,Clear,190,2013-10-09 07:55:00
3:15 AM,61.7,45.0,54,29.96,10.0,SSW,10.4,-,N/A,,Clear,200,2013-10-09 08:15:00
3:35 AM,61.2,45.1,56,29.96,10.0,South,11.5,-,N/A,,Clear,190,2013-10-09 08:35:00
3:55 AM,60.8,45.1,56,29.97,10.0,SSW,8.1,-,N/A,,Clear,200,2013-10-09 08:55:00
4:15 AM,60.1,45.5,59,29.97,10.0,South,9.2,17.3,N/A,,Clear,190,2013-10-09 09:15:00
4:35 AM,60.4,45.5,58,29.98,10.0,South,10.4,16.1,N/A,,Clear,190,2013-10-09 09:35:00
4:55 AM,60.4,45.5,58,29.98,10.0,South,10.4,17.3,N/A,,Clear,190,2013-10-09 09:55:00
5:15 AM,60.3,45.5,58,29.98,10.0,South,10.4,-,N/A,,Clear,190,2013-10-09 10:15:00
5:35 AM,59.9,45.7,59,29.99,10.0,South,9.2,-,N/A,,Clear,190,2013-10-09 10:35:00
5:55 AM,59.4,45.9,61,29.99,10.0,South,10.4,17.3,N/A,,Clear,190,2013-10-09 10:55:00
6:15 AM,59.4,45.9,61,29.99,10.0,SSW,10.4,-,N/A,,Clear,200,2013-10-09 11:15:00
6:35 AM,58.8,46.0,63,29.99,10.0,SSW,6.9,-,N/A,,Clear,200,2013-10-09 11:35:00
6:55 AM,59.0,46.4,63,30.00,10.0,South,10.4,-,N/A,,Clear,190,2013-10-09 11:55:00
7:15 AM,58.5,46.4,64,30.00,10.0,SSW,10.4,-,N/A,,Clear,200,2013-10-09 12:15:00
7:35 AM,58.5,46.6,65,30.00,10.0,SSW,8.1,-,N/A,,Clear,200,2013-10-09 12:35:00
7:55 AM,59.0,46.9,64,30.01,10.0,SSW,9.2,-,N/A,,Clear,200,2013-10-09 12:55:00
8:15 AM,60.1,47.1,62,30.01,10.0,SSW,10.4,-,N/A,,Clear,210,2013-10-09 13:15:00
8:35 AM,61.2,47.7,61,30.02,10.0,SSW,8.1,-,N/A,,Clear,200,2013-10-09 13:35:00
8:55 AM,61.7,47.8,60,30.02,10.0,SSW,9.2,-,N/A,,Clear,200,2013-10-09 13:55:00
9:15 AM,62.6,48.0,59,30.03,10.0,SSW,9.2,18.4,N/A,,Clear,200,2013-10-09 14:15:00
9:35 AM,63.1,48.2,58,30.03,10.0,SSW,16.1,20.7,N/A,,Clear,210,2013-10-09 14:35:00
9:55 AM,63.9,48.7,58,30.03,10.0,SSW,9.2,16.1,N/A,,Clear,200,2013-10-09 14:55:00
10:15 AM,64.8,48.7,56,30.03,10.0,SSW,8.1,16.1,N/A,,Clear,200,2013-10-09 15:15:00
10:35 AM,65.5,48.7,55,30.04,10.0,SW,13.8,-,N/A,,Clear,220,2013-10-09 15:35:00
10:55 AM,66.6,48.9,53,30.04,10.0,SSW,10.4,-,N/A,,Clear,200,2013-10-09 15:55:00
11:15 AM,67.3,48.6,51,30.04,10.0,SSW,10.4,16.1,N/A,,Clear,210,2013-10-09 16:15:00
11:35 AM,68.5,49.5,50,30.04,10.0,South,10.4,-,N/A,,Clear,190,2013-10-09 16:35:00
11:55 AM,68.5,48.7,49,30.04,10.0,SSW,12.7,17.3,N/A,,Clear,210,2013-10-09 16:55:00
12:15 PM,68.9,49.1,49,30.04,10.0,SSW,11.5,-,N/A,,Clear,210,2013-10-09 17:15:00
12:35 PM,69.8,48.9,47,30.04,10.0,South,11.5,-,N/A,,Clear,190,2013-10-09 17:35:00
12:55 PM,70.0,49.1,47,30.04,10.0,SSW,15.0,20.7,N/A,,Clear,200,2013-10-09 17:55:00
1:15 PM,70.7,48.9,46,30.03,10.0,SSW,12.7,18.4,N/A,,Clear,210,2013-10-09 18:15:00
1:35 PM,71.2,48.6,45,30.03,10.0,SSW,13.8,17.3,N/A,,Clear,200,2013-10-09 18:35:00
1:55 PM,72.0,48.4,43,30.03,10.0,SSW,13.8,19.6,N/A,,Clear,200,2013-10-09 18:55:00
2:15 PM,73.2,49.1,42,30.02,10.0,South,13.8,17.3,N/A,,Clear,190,2013-10-09 19:15:00
2:35 PM,73.4,49.1,42,30.02,10.0,SSW,12.7,18.4,N/A,,Clear,200,2013-10-09 19:35:00
2:55 PM,73.8,48.4,41,30.02,10.0,SSW,11.5,19.6,N/A,,Clear,200,2013-10-09 19:55:00
3:15 PM,74.1,48.2,40,30.02,10.0,SSW,11.5,17.3,N/A,,Clear,200,2013-10-09 20:15:00
3:55 PM,74.3,47.7,39,30.03,10.0,SSW,8.1,20.7,N/A,,Clear,200,2013-10-09 20:55:00
4:15 PM,74.5,47.3,38,30.03,10.0,SSW,9.2,18.4,N/A,,Clear,200,2013-10-09 21:15:00
4:35 PM,74.1,46.6,37,30.03,10.0,SSW,11.5,17.3,N/A,,Clear,200,2013-10-09 21:35:00
4:55 PM,73.8,46.4,38,30.03,10.0,SSW,9.2,-,N/A,,Clear,210,2013-10-09 21:55:00
5:15 PM,73.0,46.2,38,30.02,10.0,South,12.7,18.4,N/A,,Clear,180,2013-10-09 22:15:00
5:35 PM,71.8,45.5,39,30.03,10.0,South,10.4,17.3,N/A,,Clear,180,2013-10-09 22:35:00
5:55 PM,71.2,44.8,39,30.03,10.0,South,10.4,-,N/A,,Clear,190,2013-10-09 22:55:00
6:15 PM,69.1,46.6,45,30.03,10.0,South,8.1,-,N/A,,Clear,170,2013-10-09 23:15:00
6:55 PM,65.7,48.2,53,30.03,10.0,South,8.1,-,N/A,,Clear,170,2013-10-09 23:55:00
7:15 PM,64.9,48.4,55,30.03,10.0,South,6.9,-,N/A,,Clear,170,2013-10-10 00:15:00
7:35 PM,64.2,48.4,56,30.03,10.0,South,5.8,-,N/A,,Clear,170,2013-10-10 00:35:00
7:55 PM,63.0,48.2,59,30.03,10.0,SSE,3.5,-,N/A,,Clear,160,2013-10-10 00:55:00
8:15 PM,62.8,48.4,59,30.03,10.0,SSE,3.5,-,N/A,,Clear,150,2013-10-10 01:15:00
8:35 PM,61.7,48.4,62,30.04,10.0,Calm,Calm,-,N/A,,Clear,0,2013-10-10 01:35:00
8:55 PM,57.7,48.7,72,30.04,10.0,SE,3.5,-,N/A,,Clear,140,2013-10-10 01:55:00
9:15 PM,55.4,48.0,76,30.05,10.0,Calm,Calm,-,N/A,,Clear,0,2013-10-10 02:15:00
9:35 PM,53.6,47.5,80,30.05,10.0,Calm,Calm,-,N/A,,Clear,0,2013-10-10 02:35:00
9:55 PM,54.9,48.7,80,30.05,10.0,SSE,3.5,-,N/A,,Clear,150,2013-10-10 02:55:00
10:15 PM,56.8,48.4,73,30.06,10.0,SSE,4.6,-,N/A,,Clear,160,2013-10-10 03:15:00
10:35 PM,55.4,48.2,77,30.06,10.0,SSE,4.6,-,N/A,,Clear,150,2013-10-10 03:35:00
10:55 PM,58.1,48.7,71,30.06,10.0,SSE,4.6,-,N/A,,Clear,150,2013-10-10 03:55:00
11:15 PM,58.5,48.9,71,30.06,10.0,SSE,4.6,-,N/A,,Clear,150,2013-10-10 04:15:00
11:55 PM,57.2,48.4,72,30.07,10.0,SSE,4.6,-,N/A,,Clear,150,2013-10-10 04:55:00